Time,TemperatureF,DewpointF,PressureIn,WindDirection,WindDirectionDegrees,WindSpeedMPH,WindSpeedGustMPH,Humidity,HourlyPrecipIn,Conditions,Clouds,dailyrainin,SoftwareType,DateUTC
2013-09-23 00:22:00,55.0,45.0,-100.00,SSE,160,7.0,9.0,67,0.00,,,-99.99,,2013-09-23 05:22:00,
2013-09-23 00:43:00,54.0,44.0,-100.00,SSE,155,6.0,9.0,69,0.00,,,-99.99,,2013-09-23 05:43:00,
2013-09-23 01:22:00,53.0,46.0,-100.00,SSE,160,9.0,12.0,77,0.00,,,-99.99,,2013-09-23 06:22:00,
2013-09-23 01:42:00,53.0,47.0,-100.00,SSE,165,9.0,12.0,79,0.00,,,-99.99,,2013-09-23 06:42:00,
2013-09-23 02:22:00,52.0,47.0,-100.00,South,180,7.0,11.0,81,0.00,,,-99.99,,2013-09-23 07:22:00,
2013-09-23 02:42:00,52.0,47.0,-100.00,South,170,7.0,11.0,82,0.00,,,-99.99,,2013-09-23 07:42:00,
2013-09-23 03:22:00,51.0,46.0,-100.00,SSE,160,7.0,11.0,82,0.00,,,-99.99,,2013-09-23 08:22:00,
2013-09-23 03:32:00,51.0,46.0,-100.00,SSE,160,7.0,11.0,82,0.00,,,-99.99,,2013-09-23 08:32:00,
2013-09-23 03:42:00,51.0,46.0,-100.00,SSE,160,7.0,11.0,82,0.00,,,-99.99,,2013-09-23 08:42:00,
2013-09-23 05:23:00,49.0,45.0,-100.00,South,175,8.0,11.0,83,0.00,,,-99.99,,2013-09-23 10:23:00,
2013-09-23 05:42:00,49.0,45.0,-100.00,South,175,9.0,12.0,83,0.00,,,-99.99,,2013-09-23 10:42:00,
2013-09-23 06:21:00,49.0,44.0,-100.00,SSE,160,9.0,12.0,83,0.00,,,-99.99,,2013-09-23 11:21:00,
2013-09-23 07:22:00,49.0,44.0,-100.00,SSE,165,7.0,11.0,83,0.00,,,-99.99,,2013-09-23 12:22:00,
2013-09-23 08:42:00,53.0,45.0,-100.00,SSE,165,7.0,11.0,73,0.00,,,-99.99,,2013-09-23 13:42:00,
2013-09-23 09:22:00,57.0,43.0,-100.00,South,180,11.0,16.0,60,0.00,,,-99.99,,2013-09-23 14:22:00,
2013-09-23 09:42:00,58.0,43.0,-100.00,South,185,10.0,14.0,57,0.00,,,-99.99,,2013-09-23 14:42:00,
2013-09-23 10:21:00,61.0,44.0,-100.00,South,185,9.0,12.0,53,0.00,,,-99.99,,2013-09-23 15:21:00,
2013-09-23 10:43:00,62.0,44.0,-100.00,South,175,8.0,11.0,51,0.00,,,-99.99,,2013-09-23 15:43:00,
2013-09-23 11:23:00,65.0,45.0,-100.00,South,185,9.0,12.0,48,0.00,,,-99.99,,2013-09-23 16:23:00,
2013-09-23 11:43:00,66.0,45.0,-100.00,SSW,205,7.0,13.0,47,0.00,,,-99.99,,2013-09-23 16:43:00,
2013-09-23 12:24:00,69.0,46.0,-100.00,South,190,11.0,15.0,43,0.00,,,-99.99,,2013-09-23 17:24:00,
2013-09-23 12:42:00,70.0,46.0,-100.00,SSW,195,7.0,15.0,42,0.00,,,-99.99,,2013-09-23 17:42:00,
2013-09-23 13:21:00,71.0,46.0,-100.00,SSW,195,13.0,21.0,40,0.00,,,-99.99,,2013-09-23 18:21:00,
2013-09-23 13:42:00,74.0,47.0,-100.00,South,175,7.0,12.0,37,0.00,,,-99.99,,2013-09-23 18:42:00,
2013-09-23 14:42:00,75.0,45.0,-100.00,SW,215,7.0,12.0,35,0.00,,,-99.99,,2013-09-23 19:42:00,
2013-09-23 15:21:00,75.0,44.0,-100.00,South,185,8.0,15.0,33,0.00,,,-99.99,,2013-09-23 20:21:00,
2013-09-23 15:42:00,74.0,44.0,-100.00,South,175,12.0,17.0,34,0.00,,,-99.99,,2013-09-23 20:42:00,
2013-09-23 16:23:00,75.0,44.0,-100.00,SSW,210,9.0,15.0,33,0.00,,,-99.99,,2013-09-23 21:23:00,
2013-09-23 16:44:00,75.0,44.0,-100.00,South,185,9.0,13.0,33,0.00,,,-99.99,,2013-09-23 21:44:00,
2013-09-23 17:23:00,74.0,43.0,-100.00,South,185,11.0,17.0,33,0.00,,,-99.99,,2013-09-23 22:23:00,
2013-09-23 17:43:00,73.0,43.0,-100.00,South,170,7.0,16.0,33,0.00,,,-99.99,,2013-09-23 22:43:00,
2013-09-23 18:22:00,71.0,42.0,-100.00,South,175,8.0,16.0,34,0.00,,,-99.99,,2013-09-23 23:22:00,
2013-09-23 18:42:00,70.0,42.0,-100.00,SSE,165,6.0,11.0,36,0.00,,,-99.99,,2013-09-23 23:42:00,
2013-09-23 19:22:00,66.0,42.0,-100.00,South,170,6.0,9.0,41,0.00,,,-99.99,,2013-09-24 00:22:00,
2013-09-23 19:42:00,66.0,43.0,-100.00,SSE,155,5.0,7.0,43,0.00,,,-99.99,,2013-09-24 00:42:00,
2013-09-23 20:21:00,63.0,43.0,-100.00,SE,145,6.0,8.0,47,0.00,,,-99.99,,2013-09-24 01:21:00,
2013-09-23 20:43:00,63.0,44.0,-100.00,SE,145,6.0,9.0,51,0.00,,,-99.99,,2013-09-24 01:43:00,
2013-09-23 21:22:00,61.0,45.0,-100.00,SSE,150,7.0,11.0,55,0.00,,,-99.99,,2013-09-24 02:22:00,
2013-09-23 21:42:00,61.0,46.0,-100.00,SE,145,7.0,13.0,57,0.00,,,-99.99,,2013-09-24 02:42:00,
2013-09-23 22:22:00,61.0,46.0,-100.00,SE,145,7.0,13.0,56,0.00,,,-99.99,,2013-09-24 03:22:00,
2013-09-23 22:44:00,60.0,45.0,-100.00,SSE,155,6.0,9.0,58,0.00,,,-99.99,,2013-09-24 03:44:00,
2013-09-23 23:24:00,59.0,46.0,-100.00,SSE,165,6.0,9.0,62,0.00,,,-99.99,,2013-09-24 04:24:00,
2013-09-23 23:44:00,58.0,45.0,-100.00,SSE,155,6.0,8.0,63,0.00,,,-99.99,,2013-09-24 04:44:00,